owner,sensor,date,latitude,longitude,air_temperature,qcFlag 
DISL,ioos:station:DISL:DISL:1,2009-05-01T00:00:00Z,30.2513,-88.0778,23.4,1111122 
DISL,ioos:station:DISL:DISL:1,2009-05-01T00:30:00Z,30.2513,-88.0778,23.34,1111122 
DISL,ioos:station:DISL:DISL:1,2009-05-01T01:00:00Z,30.2513,-88.0778,23.24,1111122 
DISL,ioos:station:DISL:DISL:1,2009-05-01T01:30:00Z,30.2513,-88.0778,23.32,1111122 
DISL,ioos:station:DISL:DISL:1,2009-05-01T02:00:00Z,30.2513,-88.0778,23.37,1111122 
DISL,ioos:station:DISL:DISL:1,2009-05-01T02:30:00Z,30.2513,-88.0778,23.37,1111122 
DISL,ioos:station:DISL:DISL:1,2009-05-01T03:00:00Z,30.2513,-88.0778,23.32,1111122 
DISL,ioos:station:DISL:DISL:1,2009-05-01T03:30:00Z,30.2513,-88.0778,23.26,1111122 
DISL,ioos:station:DISL:DISL:1,2009-05-01T04:00:00Z,30.2513,-88.0778,23.24,1111122 
DISL,ioos:station:DISL:DISL:1,2009-05-01T04:30:00Z,30.2513,-88.0778,23.42,1111122 
DISL,ioos:station:DISL:DISL:1,2009-05-01T05:00:00Z,30.2513,-88.0778,23.31,1111122 
DISL,ioos:station:DISL:DISL:1,2009-05-01T05:30:00Z,30.2513,-88.0778,23.25,1111122 
DISL,ioos:station:DISL:DISL:1,2009-05-01T06:00:00Z,30.2513,-88.0778,23.29,1111122 
DISL,ioos:station:DISL:DISL:1,2009-05-01T06:30:00Z,30.2513,-88.0778,23.26,1111122 
DISL,ioos:station:DISL:DISL:1,2009-05-01T07:00:00Z,30.2513,-88.0778,23.14,1111122 
DISL,ioos:station:DISL:DISL:1,2009-05-01T07:30:00Z,30.2513,-88.0778,23.2,1111122 
DISL,ioos:station:DISL:DISL:1,2009-05-01T08:00:00Z,30.2513,-88.0778,23.14,1111122 
DISL,ioos:station:DISL:DISL:1,2009-05-01T08:30:00Z,30.2513,-88.0778,23.08,1111122 
DISL,ioos:station:DISL:DISL:1,2009-05-01T09:00:00Z,30.2513,-88.0778,23.03,1111122 
DISL,ioos:station:DISL:DISL:1,2009-05-01T09:30:00Z,30.2513,-88.0778,22.98,1111122 
DISL,ioos:station:DISL:DISL:1,2009-05-01T10:00:00Z,30.2513,-88.0778,23.01,1111122 
DISL,ioos:station:DISL:DISL:1,2009-05-01T10:30:00Z,30.2513,-88.0778,23.12,1111122 
DISL,ioos:station:DISL:DISL:1,2009-05-01T11:00:00Z,30.2513,-88.0778,23.09,1111122 
DISL,ioos:station:DISL:DISL:1,2009-05-01T11:30:00Z,30.2513,-88.0778,23.18,1111122 
DISL,ioos:station:DISL:DISL:1,2009-05-01T12:00:00Z,30.2513,-88.0778,23.48,1111122 
DISL,ioos:station:DISL:DISL:1,2009-05-01T12:30:00Z,30.2513,-88.0778,24.15,1111122 
DISL,ioos:station:DISL:DISL:1,2009-05-01T13:00:00Z,30.2513,-88.0778,24.55,1111122 
DISL,ioos:station:DISL:DISL:1,2009-05-01T13:30:00Z,30.2513,-88.0778,24.72,1111122 
DISL,ioos:station:DISL:DISL:1,2009-05-01T14:00:00Z,30.2513,-88.0778,24.26,1111122 
DISL,ioos:station:DISL:DISL:1,2009-05-01T14:30:00Z,30.2513,-88.0778,24.64,1111122 
DISL,ioos:station:DISL:DISL:1,2009-05-01T15:00:00Z,30.2513,-88.0778,24.65,1111122 
DISL,ioos:station:DISL:DISL:1,2009-05-01T15:30:00Z,30.2513,-88.0778,24.69,1111122 
DISL,ioos:station:DISL:DISL:1,2009-05-01T16:00:00Z,30.2513,-88.0778,24.88,1111122 
DISL,ioos:station:DISL:DISL:1,2009-05-01T16:30:00Z,30.2513,-88.0778,25.08,1111122 
DISL,ioos:station:DISL:DISL:1,2009-05-01T17:00:00Z,30.2513,-88.0778,24.79,1111122 
DISL,ioos:station:DISL:DISL:1,2009-05-01T17:30:00Z,30.2513,-88.0778,25.19,1111122 
DISL,ioos:station:DISL:DISL:1,2009-05-01T18:00:00Z,30.2513,-88.0778,25.61,1111122 
DISL,ioos:station:DISL:DISL:1,2009-05-01T18:30:00Z,30.2513,-88.0778,25.0,1111122 
DISL,ioos:station:DISL:DISL:1,2009-05-01T19:00:00Z,30.2513,-88.0778,25.3,1111122 
DISL,ioos:station:DISL:DISL:1,2009-05-01T19:30:00Z,30.2513,-88.0778,25.89,1111122 
DISL,ioos:station:DISL:DISL:1,2009-05-01T20:00:00Z,30.2513,-88.0778,24.79,1111122 
DISL,ioos:station:DISL:DISL:1,2009-05-01T20:30:00Z,30.2513,-88.0778,25.32,1111122 
DISL,ioos:station:DISL:DISL:1,2009-05-01T21:00:00Z,30.2513,-88.0778,25.29,1111122 
DISL,ioos:station:DISL:DISL:1,2009-05-01T21:30:00Z,30.2513,-88.0778,25.17,1111122 
DISL,ioos:station:DISL:DISL:1,2009-05-01T22:00:00Z,30.2513,-88.0778,25.19,1111122 
DISL,ioos:station:DISL:DISL:1,2009-05-01T22:30:00Z,30.2513,-88.0778,24.92,1111122 
DISL,ioos:station:DISL:DISL:1,2009-05-01T23:00:00Z,30.2513,-88.0778,24.82,1111122 
DISL,ioos:station:DISL:DISL:1,2009-05-01T23:30:00Z,30.2513,-88.0778,24.76,1111122 
DISL,ioos:station:DISL:DISL:1,2009-05-02T00:00:00Z,30.2513,-88.0778,24.49,1111122 
DISL,ioos:station:DISL:DISL:1,2009-05-02T00:30:00Z,30.2513,-88.0778,24.25,1111122 
DISL,ioos:station:DISL:DISL:1,2009-05-02T01:00:00Z,30.2513,-88.0778,24.15,1111122 
DISL,ioos:station:DISL:DISL:1,2009-05-02T01:30:00Z,30.2513,-88.0778,24.08,1111122 
DISL,ioos:station:DISL:DISL:1,2009-05-02T02:00:00Z,30.2513,-88.0778,24.0,1111122 
DISL,ioos:station:DISL:DISL:1,2009-05-02T02:30:00Z,30.2513,-88.0778,24.02,1111122 
DISL,ioos:station:DISL:DISL:1,2009-05-02T03:00:00Z,30.2513,-88.0778,24.15,1111122 
DISL,ioos:station:DISL:DISL:1,2009-05-02T03:30:00Z,30.2513,-88.0778,23.99,1111122 
DISL,ioos:station:DISL:DISL:1,2009-05-02T04:00:00Z,30.2513,-88.0778,23.94,1111122 
DISL,ioos:station:DISL:DISL:1,2009-05-02T04:30:00Z,30.2513,-88.0778,23.84,1111122 
DISL,ioos:station:DISL:DISL:1,2009-05-02T05:00:00Z,30.2513,-88.0778,23.79,1111122 
DISL,ioos:station:DISL:DISL:1,2009-05-02T05:30:00Z,30.2513,-88.0778,23.74,1111122 
DISL,ioos:station:DISL:DISL:1,2009-05-02T06:00:00Z,30.2513,-88.0778,23.69,1111122 
DISL,ioos:station:DISL:DISL:1,2009-05-02T06:30:00Z,30.2513,-88.0778,23.73,1111122 
DISL,ioos:station:DISL:DISL:1,2009-05-02T07:00:00Z,30.2513,-88.0778,23.67,1111122 
DISL,ioos:station:DISL:DISL:1,2009-05-02T07:30:00Z,30.2513,-88.0778,23.65,1111122 
DISL,ioos:station:DISL:DISL:1,2009-05-02T08:00:00Z,30.2513,-88.0778,23.59,1111122 
DISL,ioos:station:DISL:DISL:1,2009-05-02T08:30:00Z,30.2513,-88.0778,23.66,1111122 
DISL,ioos:station:DISL:DISL:1,2009-05-02T09:00:00Z,30.2513,-88.0778,23.71,1111122 
DISL,ioos:station:DISL:DISL:1,2009-05-02T09:30:00Z,30.2513,-88.0778,23.73,1111122 
DISL,ioos:station:DISL:DISL:1,2009-05-02T10:00:00Z,30.2513,-88.0778,23.63,1111122 
DISL,ioos:station:DISL:DISL:1,2009-05-02T10:30:00Z,30.2513,-88.0778,23.64,1111122 
DISL,ioos:station:DISL:DISL:1,2009-05-02T11:00:00Z,30.2513,-88.0778,23.64,1111122 
DISL,ioos:station:DISL:DISL:1,2009-05-02T11:30:00Z,30.2513,-88.0778,23.68,1111122 
DISL,ioos:station:DISL:DISL:1,2009-05-02T12:00:00Z,30.2513,-88.0778,23.79,1111122 
DISL,ioos:station:DISL:DISL:1,2009-05-02T12:30:00Z,30.2513,-88.0778,24.15,1111122 
DISL,ioos:station:DISL:DISL:1,2009-05-02T13:00:00Z,30.2513,-88.0778,24.91,1111122 
DISL,ioos:station:DISL:DISL:1,2009-05-02T13:30:00Z,30.2513,-88.0778,24.9,1111122 
DISL,ioos:station:DISL:DISL:1,2009-05-02T14:00:00Z,30.2513,-88.0778,25.1,1111122 
DISL,ioos:station:DISL:DISL:1,2009-05-02T14:30:00Z,30.2513,-88.0778,25.32,1111122 
DISL,ioos:station:DISL:DISL:1,2009-05-02T15:00:00Z,30.2513,-88.0778,24.92,1111122 
DISL,ioos:station:DISL:DISL:1,2009-05-02T15:30:00Z,30.2513,-88.0778,25.22,1111122 
DISL,ioos:station:DISL:DISL:1,2009-05-02T16:00:00Z,30.2513,-88.0778,25.7,1111122 
DISL,ioos:station:DISL:DISL:1,2009-05-02T16:30:00Z,30.2513,-88.0778,25.75,1111122 
DISL,ioos:station:DISL:DISL:1,2009-05-02T17:00:00Z,30.2513,-88.0778,25.49,1111122 
DISL,ioos:station:DISL:DISL:1,2009-05-02T17:30:00Z,30.2513,-88.0778,25.64,1111122 
DISL,ioos:station:DISL:DISL:1,2009-05-02T18:00:00Z,30.2513,-88.0778,26.15,1111122 
DISL,ioos:station:DISL:DISL:1,2009-05-02T18:30:00Z,30.2513,-88.0778,25.83,1111122 
DISL,ioos:station:DISL:DISL:1,2009-05-02T19:00:00Z,30.2513,-88.0778,25.68,1111122 
DISL,ioos:station:DISL:DISL:1,2009-05-02T19:30:00Z,30.2513,-88.0778,25.88,1111122 
DISL,ioos:station:DISL:DISL:1,2009-05-02T20:00:00Z,30.2513,-88.0778,26.08,1111122 
DISL,ioos:station:DISL:DISL:1,2009-05-02T20:30:00Z,30.2513,-88.0778,25.62,1111122 
DISL,ioos:station:DISL:DISL:1,2009-05-02T21:00:00Z,30.2513,-88.0778,25.78,1111122 
DISL,ioos:station:DISL:DISL:1,2009-05-02T21:30:00Z,30.2513,-88.0778,25.49,1111122 
DISL,ioos:station:DISL:DISL:1,2009-05-02T22:00:00Z,30.2513,-88.0778,25.13,1111122 
DISL,ioos:station:DISL:DISL:1,2009-05-02T22:30:00Z,30.2513,-88.0778,25.52,1111122 
DISL,ioos:station:DISL:DISL:1,2009-05-02T23:00:00Z,30.2513,-88.0778,25.14,1111122 
DISL,ioos:station:DISL:DISL:1,2009-05-02T23:30:00Z,30.2513,-88.0778,24.87,1111122 
DISL,ioos:station:DISL:DISL:1,2009-05-03T00:00:00Z,30.2513,-88.0778,24.58,1111122 
DISL,ioos:station:DISL:DISL:1,2009-05-03T00:30:00Z,30.2513,-88.0778,24.6,1111122 
DISL,ioos:station:DISL:DISL:1,2009-05-03T01:00:00Z,30.2513,-88.0778,24.46,1111122 
DISL,ioos:station:DISL:DISL:1,2009-05-03T01:30:00Z,30.2513,-88.0778,24.41,1111122 
DISL,ioos:station:DISL:DISL:1,2009-05-03T02:00:00Z,30.2513,-88.0778,24.31,1111122 
DISL,ioos:station:DISL:DISL:1,2009-05-03T02:30:00Z,30.2513,-88.0778,24.32,1111122 
DISL,ioos:station:DISL:DISL:1,2009-05-03T03:00:00Z,30.2513,-88.0778,24.34,1111122 
DISL,ioos:station:DISL:DISL:1,2009-05-03T03:30:00Z,30.2513,-88.0778,24.29,1111122 
DISL,ioos:station:DISL:DISL:1,2009-05-03T04:00:00Z,30.2513,-88.0778,24.32,1111122 
DISL,ioos:station:DISL:DISL:1,2009-05-03T04:30:00Z,30.2513,-88.0778,24.26,1111122 
DISL,ioos:station:DISL:DISL:1,2009-05-03T05:00:00Z,30.2513,-88.0778,24.27,1111122 
DISL,ioos:station:DISL:DISL:1,2009-05-03T05:30:00Z,30.2513,-88.0778,24.25,1111122 
DISL,ioos:station:DISL:DISL:1,2009-05-03T06:00:00Z,30.2513,-88.0778,24.19,1111122 
DISL,ioos:station:DISL:DISL:1,2009-05-03T06:30:00Z,30.2513,-88.0778,24.26,1111122 
DISL,ioos:station:DISL:DISL:1,2009-05-03T07:00:00Z,30.2513,-88.0778,24.15,1111122 
DISL,ioos:station:DISL:DISL:1,2009-05-03T07:30:00Z,30.2513,-88.0778,24.26,1111122 
DISL,ioos:station:DISL:DISL:1,2009-05-03T08:00:00Z,30.2513,-88.0778,24.21,1111122 
DISL,ioos:station:DISL:DISL:1,2009-05-03T08:30:00Z,30.2513,-88.0778,24.16,1111122 
DISL,ioos:station:DISL:DISL:1,2009-05-03T09:00:00Z,30.2513,-88.0778,24.24,1111122 
DISL,ioos:station:DISL:DISL:1,2009-05-03T09:30:00Z,30.2513,-88.0778,24.19,1111122 
DISL,ioos:station:DISL:DISL:1,2009-05-03T10:00:00Z,30.2513,-88.0778,24.14,1111122 
DISL,ioos:station:DISL:DISL:1,2009-05-03T10:30:00Z,30.2513,-88.0778,24.06,1111122 
DISL,ioos:station:DISL:DISL:1,2009-05-03T11:00:00Z,30.2513,-88.0778,24.16,1111122 
DISL,ioos:station:DISL:DISL:1,2009-05-03T11:30:00Z,30.2513,-88.0778,24.12,1111122 
DISL,ioos:station:DISL:DISL:1,2009-05-03T12:00:00Z,30.2513,-88.0778,24.17,1111122 
DISL,ioos:station:DISL:DISL:1,2009-05-03T12:30:00Z,30.2513,-88.0778,24.67,1111122 
DISL,ioos:station:DISL:DISL:1,2009-05-03T13:00:00Z,30.2513,-88.0778,24.6,1111122 
DISL,ioos:station:DISL:DISL:1,2009-05-03T13:30:00Z,30.2513,-88.0778,24.81,1111122 
DISL,ioos:station:DISL:DISL:1,2009-05-03T14:00:00Z,30.2513,-88.0778,24.79,1111122 
DISL,ioos:station:DISL:DISL:1,2009-05-03T14:30:00Z,30.2513,-88.0778,25.34,1111122 
DISL,ioos:station:DISL:DISL:1,2009-05-03T15:00:00Z,30.2513,-88.0778,25.45,1111122 
DISL,ioos:station:DISL:DISL:1,2009-05-03T15:30:00Z,30.2513,-88.0778,25.55,1111122 
DISL,ioos:station:DISL:DISL:1,2009-05-03T16:00:00Z,30.2513,-88.0778,25.57,1111122 
DISL,ioos:station:DISL:DISL:1,2009-05-03T16:30:00Z,30.2513,-88.0778,25.73,1111122 
DISL,ioos:station:DISL:DISL:1,2009-05-03T17:00:00Z,30.2513,-88.0778,26.02,1111122 
DISL,ioos:station:DISL:DISL:1,2009-05-03T17:30:00Z,30.2513,-88.0778,26.04,1111122 
DISL,ioos:station:DISL:DISL:1,2009-05-03T18:00:00Z,30.2513,-88.0778,26.26,1111122 
DISL,ioos:station:DISL:DISL:1,2009-05-03T18:30:00Z,30.2513,-88.0778,26.18,1111122 
DISL,ioos:station:DISL:DISL:1,2009-05-03T19:00:00Z,30.2513,-88.0778,25.7,1111122 
DISL,ioos:station:DISL:DISL:1,2009-05-03T19:30:00Z,30.2513,-88.0778,26.56,1111122 
DISL,ioos:station:DISL:DISL:1,2009-05-03T20:00:00Z,30.2513,-88.0778,27.04,1111122 
DISL,ioos:station:DISL:DISL:1,2009-05-03T20:30:00Z,30.2513,-88.0778,26.53,1111122 
DISL,ioos:station:DISL:DISL:1,2009-05-03T21:00:00Z,30.2513,-88.0778,26.03,1111122 
DISL,ioos:station:DISL:DISL:1,2009-05-03T21:30:00Z,30.2513,-88.0778,26.04,1111122 
DISL,ioos:station:DISL:DISL:1,2009-05-03T22:00:00Z,30.2513,-88.0778,26.04,1111122 
DISL,ioos:station:DISL:DISL:1,2009-05-03T22:30:00Z,30.2513,-88.0778,21.89,1111122 
DISL,ioos:station:DISL:DISL:1,2009-05-03T23:00:00Z,30.2513,-88.0778,22.2,1111122 
DISL,ioos:station:DISL:DISL:1,2009-05-03T23:30:00Z,30.2513,-88.0778,22.43,1111122 
DISL,ioos:station:DISL:DISL:1,2009-05-04T00:00:00Z,30.2513,-88.0778,22.61,1111122 
DISL,ioos:station:DISL:DISL:1,2009-05-04T00:30:00Z,30.2513,-88.0778,22.79,1111122 
DISL,ioos:station:DISL:DISL:1,2009-05-04T01:00:00Z,30.2513,-88.0778,23.14,1111122 
DISL,ioos:station:DISL:DISL:1,2009-05-04T01:30:00Z,30.2513,-88.0778,23.43,1111122 
DISL,ioos:station:DISL:DISL:1,2009-05-04T02:00:00Z,30.2513,-88.0778,23.7,1111122 
DISL,ioos:station:DISL:DISL:1,2009-05-04T02:30:00Z,30.2513,-88.0778,23.86,1111122 
DISL,ioos:station:DISL:DISL:1,2009-05-04T03:00:00Z,30.2513,-88.0778,24.73,1111122 
DISL,ioos:station:DISL:DISL:1,2009-05-04T03:30:00Z,30.2513,-88.0778,24.77,1111122 
DISL,ioos:station:DISL:DISL:1,2009-05-04T04:00:00Z,30.2513,-88.0778,24.87,1111122 
DISL,ioos:station:DISL:DISL:1,2009-05-04T04:30:00Z,30.2513,-88.0778,24.87,1111122 
DISL,ioos:station:DISL:DISL:1,2009-05-04T05:00:00Z,30.2513,-88.0778,24.86,1111122 
DISL,ioos:station:DISL:DISL:1,2009-05-04T05:30:00Z,30.2513,-88.0778,24.79,1111122 
DISL,ioos:station:DISL:DISL:1,2009-05-04T06:00:00Z,30.2513,-88.0778,24.83,1111122 
DISL,ioos:station:DISL:DISL:1,2009-05-04T06:30:00Z,30.2513,-88.0778,24.81,1111122 
DISL,ioos:station:DISL:DISL:1,2009-05-04T07:00:00Z,30.2513,-88.0778,24.9,1111122 
DISL,ioos:station:DISL:DISL:1,2009-05-04T07:30:00Z,30.2513,-88.0778,24.88,1111122 
DISL,ioos:station:DISL:DISL:1,2009-05-04T08:00:00Z,30.2513,-88.0778,24.96,1111122 
DISL,ioos:station:DISL:DISL:1,2009-05-04T08:30:00Z,30.2513,-88.0778,24.95,1111122 
DISL,ioos:station:DISL:DISL:1,2009-05-04T09:00:00Z,30.2513,-88.0778,24.96,1111122 
DISL,ioos:station:DISL:DISL:1,2009-05-04T09:30:00Z,30.2513,-88.0778,24.99,1111122 
DISL,ioos:station:DISL:DISL:1,2009-05-04T10:00:00Z,30.2513,-88.0778,25.05,1111122 
DISL,ioos:station:DISL:DISL:1,2009-05-04T10:30:00Z,30.2513,-88.0778,25.1,1111122 
DISL,ioos:station:DISL:DISL:1,2009-05-04T11:00:00Z,30.2513,-88.0778,25.02,1111122 
DISL,ioos:station:DISL:DISL:1,2009-05-04T11:30:00Z,30.2513,-88.0778,25.03,1111122 
DISL,ioos:station:DISL:DISL:1,2009-05-04T12:00:00Z,30.2513,-88.0778,25.06,1111122 
DISL,ioos:station:DISL:DISL:1,2009-05-04T12:30:00Z,30.2513,-88.0778,25.05,1111122 
DISL,ioos:station:DISL:DISL:1,2009-05-04T13:00:00Z,30.2513,-88.0778,24.97,1111122 
DISL,ioos:station:DISL:DISL:1,2009-05-04T13:30:00Z,30.2513,-88.0778,25.02,1111122 
DISL,ioos:station:DISL:DISL:1,2009-05-04T14:00:00Z,30.2513,-88.0778,25.05,1111122 
DISL,ioos:station:DISL:DISL:1,2009-05-04T14:30:00Z,30.2513,-88.0778,25.54,1111122 
DISL,ioos:station:DISL:DISL:1,2009-05-04T15:00:00Z,30.2513,-88.0778,25.26,1111122 
DISL,ioos:station:DISL:DISL:1,2009-05-04T15:30:00Z,30.2513,-88.0778,25.18,1111122 
DISL,ioos:station:DISL:DISL:1,2009-05-04T16:00:00Z,30.2513,-88.0778,25.12,1111122 
DISL,ioos:station:DISL:DISL:1,2009-05-04T16:30:00Z,30.2513,-88.0778,25.01,1111122 
DISL,ioos:station:DISL:DISL:1,2009-05-04T17:00:00Z,30.2513,-88.0778,24.95,1111122 
DISL,ioos:station:DISL:DISL:1,2009-05-04T17:30:00Z,30.2513,-88.0778,25.1,1111122 
DISL,ioos:station:DISL:DISL:1,2009-05-04T18:00:00Z,30.2513,-88.0778,25.47,1111122 
DISL,ioos:station:DISL:DISL:1,2009-05-04T18:30:00Z,30.2513,-88.0778,24.81,1111122 
DISL,ioos:station:DISL:DISL:1,2009-05-04T19:00:00Z,30.2513,-88.0778,23.56,1111122 
DISL,ioos:station:DISL:DISL:1,2009-05-04T19:30:00Z,30.2513,-88.0778,24.89,1111122 
DISL,ioos:station:DISL:DISL:1,2009-05-04T20:00:00Z,30.2513,-88.0778,25.71,1111122 
DISL,ioos:station:DISL:DISL:1,2009-05-04T20:30:00Z,30.2513,-88.0778,25.62,1111122 
DISL,ioos:station:DISL:DISL:1,2009-05-04T21:00:00Z,30.2513,-88.0778,26.07,1111122 
DISL,ioos:station:DISL:DISL:1,2009-05-04T21:30:00Z,30.2513,-88.0778,25.64,1111122 
DISL,ioos:station:DISL:DISL:1,2009-05-04T22:00:00Z,30.2513,-88.0778,25.42,1111122 
DISL,ioos:station:DISL:DISL:1,2009-05-04T22:30:00Z,30.2513,-88.0778,25.18,1111122 
DISL,ioos:station:DISL:DISL:1,2009-05-04T23:00:00Z,30.2513,-88.0778,25.25,1111122 
DISL,ioos:station:DISL:DISL:1,2009-05-04T23:30:00Z,30.2513,-88.0778,24.89,1111122 
DISL,ioos:station:DISL:DISL:1,2009-05-05T00:00:00Z,30.2513,-88.0778,24.74,1111122 
DISL,ioos:station:DISL:DISL:1,2009-05-05T00:30:00Z,30.2513,-88.0778,24.59,1111122 
DISL,ioos:station:DISL:DISL:1,2009-05-05T01:00:00Z,30.2513,-88.0778,24.55,1111122 
DISL,ioos:station:DISL:DISL:1,2009-05-05T01:30:00Z,30.2513,-88.0778,24.59,1111122 
DISL,ioos:station:DISL:DISL:1,2009-05-05T02:00:00Z,30.2513,-88.0778,24.64,1111122 
DISL,ioos:station:DISL:DISL:1,2009-05-05T02:30:00Z,30.2513,-88.0778,24.77,1111122 
DISL,ioos:station:DISL:DISL:1,2009-05-05T03:00:00Z,30.2513,-88.0778,24.77,1111122 
DISL,ioos:station:DISL:DISL:1,2009-05-05T03:30:00Z,30.2513,-88.0778,24.78,1111122 
DISL,ioos:station:DISL:DISL:1,2009-05-05T04:00:00Z,30.2513,-88.0778,24.8,1111122 
DISL,ioos:station:DISL:DISL:1,2009-05-05T04:30:00Z,30.2513,-88.0778,24.84,1111122 
DISL,ioos:station:DISL:DISL:1,2009-05-05T05:00:00Z,30.2513,-88.0778,24.77,1111122 
DISL,ioos:station:DISL:DISL:1,2009-05-05T05:30:00Z,30.2513,-88.0778,24.77,1111122 
DISL,ioos:station:DISL:DISL:1,2009-05-05T06:00:00Z,30.2513,-88.0778,24.69,1111122 
DISL,ioos:station:DISL:DISL:1,2009-05-05T06:30:00Z,30.2513,-88.0778,24.65,1111122 
DISL,ioos:station:DISL:DISL:1,2009-05-05T07:00:00Z,30.2513,-88.0778,24.59,1111122 
DISL,ioos:station:DISL:DISL:1,2009-05-05T07:30:00Z,30.2513,-88.0778,24.59,1111122 
DISL,ioos:station:DISL:DISL:1,2009-05-05T08:00:00Z,30.2513,-88.0778,24.69,1111122 
DISL,ioos:station:DISL:DISL:1,2009-05-05T08:30:00Z,30.2513,-88.0778,24.68,1111122 
DISL,ioos:station:DISL:DISL:1,2009-05-05T09:00:00Z,30.2513,-88.0778,24.64,1111122 
DISL,ioos:station:DISL:DISL:1,2009-05-05T09:30:00Z,30.2513,-88.0778,24.6,1111122 
DISL,ioos:station:DISL:DISL:1,2009-05-05T10:00:00Z,30.2513,-88.0778,24.54,1111122 
DISL,ioos:station:DISL:DISL:1,2009-05-05T10:30:00Z,30.2513,-88.0778,24.55,1111122 
DISL,ioos:station:DISL:DISL:1,2009-05-05T11:00:00Z,30.2513,-88.0778,24.48,1111122 
DISL,ioos:station:DISL:DISL:1,2009-05-05T11:30:00Z,30.2513,-88.0778,24.44,1111122 
DISL,ioos:station:DISL:DISL:1,2009-05-05T12:00:00Z,30.2513,-88.0778,24.72,1111122 
DISL,ioos:station:DISL:DISL:1,2009-05-05T12:30:00Z,30.2513,-88.0778,24.87,1111122 
DISL,ioos:station:DISL:DISL:1,2009-05-05T13:00:00Z,30.2513,-88.0778,25.49,1111122 
DISL,ioos:station:DISL:DISL:1,2009-05-05T13:30:00Z,30.2513,-88.0778,25.36,1111122 
DISL,ioos:station:DISL:DISL:1,2009-05-05T14:00:00Z,30.2513,-88.0778,25.65,1111122 
DISL,ioos:station:DISL:DISL:1,2009-05-05T14:30:00Z,30.2513,-88.0778,26.02,1111122 
DISL,ioos:station:DISL:DISL:1,2009-05-05T15:00:00Z,30.2513,-88.0778,26.27,1111122 
DISL,ioos:station:DISL:DISL:1,2009-05-05T15:30:00Z,30.2513,-88.0778,25.62,1111122 
DISL,ioos:station:DISL:DISL:1,2009-05-05T16:00:00Z,30.2513,-88.0778,25.79,1111122 
DISL,ioos:station:DISL:DISL:1,2009-05-05T16:30:00Z,30.2513,-88.0778,26.17,1111122 
DISL,ioos:station:DISL:DISL:1,2009-05-05T17:00:00Z,30.2513,-88.0778,26.44,1111122 
DISL,ioos:station:DISL:DISL:1,2009-05-05T17:30:00Z,30.2513,-88.0778,26.01,1111122 
DISL,ioos:station:DISL:DISL:1,2009-05-05T18:00:00Z,30.2513,-88.0778,25.95,1111122 
DISL,ioos:station:DISL:DISL:1,2009-05-05T18:30:00Z,30.2513,-88.0778,26.59,1111122 
DISL,ioos:station:DISL:DISL:1,2009-05-05T19:00:00Z,30.2513,-88.0778,26.7,1111122 
DISL,ioos:station:DISL:DISL:1,2009-05-05T19:30:00Z,30.2513,-88.0778,25.76,1111122 
DISL,ioos:station:DISL:DISL:1,2009-05-05T20:00:00Z,30.2513,-88.0778,25.59,1111122 
DISL,ioos:station:DISL:DISL:1,2009-05-05T20:30:00Z,30.2513,-88.0778,26.26,1111122 
DISL,ioos:station:DISL:DISL:1,2009-05-05T21:00:00Z,30.2513,-88.0778,26.06,1111122 
DISL,ioos:station:DISL:DISL:1,2009-05-05T21:30:00Z,30.2513,-88.0778,26.8,1111122 
DISL,ioos:station:DISL:DISL:1,2009-05-05T22:00:00Z,30.2513,-88.0778,26.1,1111122 
DISL,ioos:station:DISL:DISL:1,2009-05-05T22:30:00Z,30.2513,-88.0778,26.32,1111122 
DISL,ioos:station:DISL:DISL:1,2009-05-05T23:00:00Z,30.2513,-88.0778,25.81,1111122 
DISL,ioos:station:DISL:DISL:1,2009-05-05T23:30:00Z,30.2513,-88.0778,25.61,1111122 
DISL,ioos:station:DISL:DISL:1,2009-05-06T00:00:00Z,30.2513,-88.0778,25.47,1111122 
DISL,ioos:station:DISL:DISL:1,2009-05-06T00:30:00Z,30.2513,-88.0778,25.35,1111122 
DISL,ioos:station:DISL:DISL:1,2009-05-06T01:00:00Z,30.2513,-88.0778,25.31,1111122 
DISL,ioos:station:DISL:DISL:1,2009-05-06T01:30:00Z,30.2513,-88.0778,25.22,1111122 
DISL,ioos:station:DISL:DISL:1,2009-05-06T02:00:00Z,30.2513,-88.0778,25.23,1111122 
DISL,ioos:station:DISL:DISL:1,2009-05-06T02:30:00Z,30.2513,-88.0778,25.26,1111122 
DISL,ioos:station:DISL:DISL:1,2009-05-06T03:00:00Z,30.2513,-88.0778,25.21,1111122 
DISL,ioos:station:DISL:DISL:1,2009-05-06T03:30:00Z,30.2513,-88.0778,25.11,1111122 
DISL,ioos:station:DISL:DISL:1,2009-05-06T04:00:00Z,30.2513,-88.0778,25.15,1111122 
DISL,ioos:station:DISL:DISL:1,2009-05-06T04:30:00Z,30.2513,-88.0778,25.06,1111122 
DISL,ioos:station:DISL:DISL:1,2009-05-06T05:00:00Z,30.2513,-88.0778,25.13,1111122 
DISL,ioos:station:DISL:DISL:1,2009-05-06T05:30:00Z,30.2513,-88.0778,25.08,1111122 
DISL,ioos:station:DISL:DISL:1,2009-05-06T06:00:00Z,30.2513,-88.0778,25.0,1111122 
DISL,ioos:station:DISL:DISL:1,2009-05-06T06:30:00Z,30.2513,-88.0778,25.01,1111122 
DISL,ioos:station:DISL:DISL:1,2009-05-06T07:00:00Z,30.2513,-88.0778,25.0,1111122 
DISL,ioos:station:DISL:DISL:1,2009-05-06T07:30:00Z,30.2513,-88.0778,24.97,1111122 
DISL,ioos:station:DISL:DISL:1,2009-05-06T08:00:00Z,30.2513,-88.0778,24.99,1111122 
DISL,ioos:station:DISL:DISL:1,2009-05-06T08:30:00Z,30.2513,-88.0778,24.91,1111122 
DISL,ioos:station:DISL:DISL:1,2009-05-06T09:00:00Z,30.2513,-88.0778,24.96,1111122 
DISL,ioos:station:DISL:DISL:1,2009-05-06T09:30:00Z,30.2513,-88.0778,24.96,1111122 
DISL,ioos:station:DISL:DISL:1,2009-05-06T10:00:00Z,30.2513,-88.0778,24.93,1111122 
DISL,ioos:station:DISL:DISL:1,2009-05-06T10:30:00Z,30.2513,-88.0778,24.93,1111122 
DISL,ioos:station:DISL:DISL:1,2009-05-06T11:00:00Z,30.2513,-88.0778,24.91,1111122 
DISL,ioos:station:DISL:DISL:1,2009-05-06T11:30:00Z,30.2513,-88.0778,24.96,1111122 
DISL,ioos:station:DISL:DISL:1,2009-05-06T12:00:00Z,30.2513,-88.0778,25.15,1111122 
DISL,ioos:station:DISL:DISL:1,2009-05-06T12:30:00Z,30.2513,-88.0778,25.3,1111122 
DISL,ioos:station:DISL:DISL:1,2009-05-06T13:00:00Z,30.2513,-88.0778,25.79,1111122 
DISL,ioos:station:DISL:DISL:1,2009-05-06T13:30:00Z,30.2513,-88.0778,25.73,1111122 
DISL,ioos:station:DISL:DISL:1,2009-05-06T14:00:00Z,30.2513,-88.0778,26.08,1111122 
DISL,ioos:station:DISL:DISL:1,2009-05-06T14:30:00Z,30.2513,-88.0778,26.78,1111122 
DISL,ioos:station:DISL:DISL:1,2009-05-06T15:00:00Z,30.2513,-88.0778,26.59,1111122 
DISL,ioos:station:DISL:DISL:1,2009-05-06T15:30:00Z,30.2513,-88.0778,26.81,1111122 
DISL,ioos:station:DISL:DISL:1,2009-05-06T16:00:00Z,30.2513,-88.0778,27.12,1111122 
DISL,ioos:station:DISL:DISL:1,2009-05-06T16:30:00Z,30.2513,-88.0778,26.95,1111122 
DISL,ioos:station:DISL:DISL:1,2009-05-06T17:00:00Z,30.2513,-88.0778,26.84,1111122 
DISL,ioos:station:DISL:DISL:1,2009-05-06T17:30:00Z,30.2513,-88.0778,27.02,1111122 
DISL,ioos:station:DISL:DISL:1,2009-05-06T18:00:00Z,30.2513,-88.0778,27.58,1111122 
DISL,ioos:station:DISL:DISL:1,2009-05-06T18:30:00Z,30.2513,-88.0778,27.16,1111122 
DISL,ioos:station:DISL:DISL:1,2009-05-06T19:00:00Z,30.2513,-88.0778,27.09,1111122 
DISL,ioos:station:DISL:DISL:1,2009-05-06T19:30:00Z,30.2513,-88.0778,26.98,1111122 
DISL,ioos:station:DISL:DISL:1,2009-05-06T20:00:00Z,30.2513,-88.0778,27.19,1111122 
DISL,ioos:station:DISL:DISL:1,2009-05-06T20:30:00Z,30.2513,-88.0778,26.32,1111122 
DISL,ioos:station:DISL:DISL:1,2009-05-06T21:00:00Z,30.2513,-88.0778,26.47,1111122 
DISL,ioos:station:DISL:DISL:1,2009-05-06T21:30:00Z,30.2513,-88.0778,26.58,1111122 
DISL,ioos:station:DISL:DISL:1,2009-05-06T22:00:00Z,30.2513,-88.0778,26.82,1111122 
DISL,ioos:station:DISL:DISL:1,2009-05-06T22:30:00Z,30.2513,-88.0778,26.27,1111122 
DISL,ioos:station:DISL:DISL:1,2009-05-06T23:00:00Z,30.2513,-88.0778,25.93,1111122 
DISL,ioos:station:DISL:DISL:1,2009-05-06T23:30:00Z,30.2513,-88.0778,25.78,1111122 